Time,TemperatureF,DewpointF,PressureIn,WindDirection,WindDirectionDegrees,WindSpeedMPH,WindSpeedGustMPH,Humidity,HourlyPrecipIn,Conditions,Clouds,dailyrainin,SolarRadiationWatts/m^2,SoftwareType,DateUTC
2013-01-19 00:01:00,36.1,18.8,29.87,South,179,10.8,17.3,49,0.00,OVC,BKN,0.00,0.0,WeatherDisplay:10.37,2013-01-19 05:01:00,
2013-01-19 00:03:00,36.1,18.8,29.87,SSE,167,9.4,13.8,49,0.00,OVC,BKN,0.00,0.0,WeatherDisplay:10.37,2013-01-19 05:03:00,
2013-01-19 00:08:00,36.1,18.3,29.86,SSW,195,14.2,20.7,48,0.00,OVC,BKN,0.00,0.0,WeatherDisplay:10.37,2013-01-19 05:08:00,
2013-01-19 00:13:00,36.5,18.6,29.86,SSE,167,11.3,19.7,48,0.00,OVC,BKN,0.00,0.0,WeatherDisplay:10.37,2013-01-19 05:13:00,
2013-01-19 00:18:00,36.7,18.8,29.85,SW,215,12.6,18.4,48,0.00,OVC,BKN,0.00,0.0,WeatherDisplay:10.37,2013-01-19 05:18:00,
2013-01-19 00:23:00,36.9,19.0,29.87,SSW,193,10.4,15.0,48,0.00,OVC,BKN,0.00,0.0,WeatherDisplay:10.37,2013-01-19 05:23:00,
2013-01-19 00:28:00,37.2,18.8,29.87,SSW,192,10.6,15.9,47,0.00,OVC,BKN,0.00,0.0,WeatherDisplay:10.37,2013-01-19 05:28:00,
2013-01-19 00:33:00,36.9,19.0,29.87,SSW,202,7.7,13.8,48,0.00,OVC,BKN,0.00,0.0,WeatherDisplay:10.37,2013-01-19 05:33:00,
2013-01-19 00:38:00,37.2,18.3,29.87,SW,219,10.1,13.8,46,0.00,OVC,BKN,0.00,0.0,WeatherDisplay:10.37,2013-01-19 05:38:00,
2013-01-19 00:43:00,37.2,18.8,29.87,WSW,252,9.1,16.1,47,0.00,OVC,BKN,0.00,0.0,WeatherDisplay:10.37,2013-01-19 05:43:00,
2013-01-19 00:48:00,37.6,19.1,29.87,SW,218,7.1,10.4,47,0.00,OVC,BKN,0.00,0.0,WeatherDisplay:10.37,2013-01-19 05:48:00,
2013-01-19 00:53:00,37.6,18.6,29.86,South,180,9.1,15.0,46,0.00,OVC,BKN,0.00,0.0,WeatherDisplay:10.37,2013-01-19 05:53:00,
2013-01-19 00:58:00,38.1,18.6,29.87,South,173,6.5,11.5,45,0.00,OVC,BKN,0.00,0.0,WeatherDisplay:10.37,2013-01-19 05:58:00,
2013-01-19 01:03:00,37.9,19.0,29.87,South,191,9.4,13.7,46,0.00,OVC,BKN,0.00,0.0,WeatherDisplay:10.37,2013-01-19 06:03:00,
2013-01-19 01:08:00,37.9,19.0,29.86,South,176,8.1,16.1,46,0.00,OVC,BKN,0.00,0.0,WeatherDisplay:10.37,2013-01-19 06:08:00,
2013-01-19 01:13:00,37.9,18.5,29.86,East,81,10.8,15.0,45,0.00,OVC,BKN,0.00,0.0,WeatherDisplay:10.37,2013-01-19 06:13:00,
2013-01-19 01:18:00,37.9,19.5,29.87,SSW,192,6.6,13.5,47,0.00,OVC,BKN,0.00,0.0,WeatherDisplay:10.37,2013-01-19 06:18:00,
2013-01-19 01:23:00,38.1,19.1,29.86,SSW,208,7.3,10.4,46,0.00,OVC,BKN,0.00,0.0,WeatherDisplay:10.37,2013-01-19 06:23:00,
2013-01-19 01:28:00,37.9,18.5,29.86,South,189,12.7,19.6,45,0.00,OVC,BKN,0.00,0.0,WeatherDisplay:10.37,2013-01-19 06:28:00,
2013-01-19 01:33:00,38.1,18.6,29.85,SSW,205,7.4,11.5,45,0.00,OVC,BKN,0.00,0.0,WeatherDisplay:10.37,2013-01-19 06:33:00,
2013-01-19 01:38:00,38.1,18.6,29.86,SW,218,8.8,12.7,45,0.00,OVC,BKN,0.00,0.0,WeatherDisplay:10.37,2013-01-19 06:38:00,
2013-01-19 01:43:00,38.1,19.1,29.85,SW,214,7.6,10.4,46,0.00,OVC,BKN,0.00,0.0,WeatherDisplay:10.37,2013-01-19 06:43:00,
2013-01-19 01:48:00,38.3,18.8,29.86,SSW,194,9.0,13.8,45,0.00,OVC,BKN,0.00,0.0,WeatherDisplay:10.37,2013-01-19 06:48:00,
2013-01-19 01:53:00,38.3,19.3,29.86,SSW,211,9.6,15.0,46,0.00,OVC,BKN,0.00,0.0,WeatherDisplay:10.37,2013-01-19 06:53:00,
2013-01-19 01:58:00,38.3,19.3,29.86,SSW,195,8.5,15.3,46,0.00,OVC,BKN,0.00,0.0,WeatherDisplay:10.37,2013-01-19 06:58:00,
2013-01-19 02:03:00,38.5,19.0,29.87,SSW,205,8.6,13.8,45,0.00,OVC,BKN,0.00,0.0,WeatherDisplay:10.37,2013-01-19 07:03:00,
2013-01-19 02:08:00,38.5,19.0,29.86,SSW,204,9.4,12.7,45,0.00,OVC,BKN,0.00,0.0,WeatherDisplay:10.37,2013-01-19 07:08:00,
2013-01-19 02:13:00,38.3,19.3,29.87,SSW,194,6.9,11.5,46,0.00,OVC,BKN,0.00,0.0,WeatherDisplay:10.37,2013-01-19 07:13:00,
2013-01-19 02:18:00,38.1,19.6,29.87,SW,225,8.1,13.8,47,0.00,OVC,BKN,0.00,0.0,WeatherDisplay:10.37,2013-01-19 07:18:00,
2013-01-19 02:23:00,38.3,19.3,29.86,SSW,203,7.6,12.7,46,0.00,OVC,BKN,0.00,0.0,WeatherDisplay:10.37,2013-01-19 07:23:00,
2013-01-19 02:28:00,38.1,19.6,29.86,SSW,206,7.8,9.2,47,0.00,OVC,BKN,0.00,0.0,WeatherDisplay:10.37,2013-01-19 07:28:00,
2013-01-19 02:33:00,38.5,20.0,29.86,SSW,205,6.3,11.5,47,0.00,OVC,BKN,0.00,0.0,WeatherDisplay:10.37,2013-01-19 07:33:00,
2013-01-19 02:38:00,38.1,19.1,29.85,South,184,8.0,12.8,46,0.00,OVC,BKN,0.00,0.0,WeatherDisplay:10.37,2013-01-19 07:38:00,
2013-01-19 02:43:00,38.3,19.8,29.85,SSW,193,6.3,9.2,47,0.00,OVC,BKN,0.00,0.0,WeatherDisplay:10.37,2013-01-19 07:43:00,
2013-01-19 02:48:00,38.5,19.5,29.85,SSW,200,6.2,10.4,46,0.00,OVC,BKN,0.00,0.0,WeatherDisplay:10.37,2013-01-19 07:48:00,
2013-01-19 02:53:00,38.5,19.5,29.85,SW,227,9.9,12.7,46,0.00,OVC,BKN,0.00,0.0,WeatherDisplay:10.37,2013-01-19 07:53:00,
2013-01-19 02:58:00,38.5,19.5,29.85,SSW,193,9.4,12.7,46,0.00,OVC,BKN,0.00,0.0,WeatherDisplay:10.37,2013-01-19 07:58:00,
2013-01-19 03:03:00,38.7,19.6,29.85,SSW,195,7.8,13.7,46,0.00,OVC,BKN,0.00,0.0,WeatherDisplay:10.37,2013-01-19 08:03:00,
2013-01-19 03:08:00,38.8,19.8,29.84,SW,219,9.1,13.8,46,0.00,OVC,BKN,0.00,0.0,WeatherDisplay:10.37,2013-01-19 08:08:00,
2013-01-19 03:13:00,38.8,19.8,29.84,SSW,201,9.4,11.5,46,0.00,OVC,BKN,0.00,0.0,WeatherDisplay:10.37,2013-01-19 08:13:00,
2013-01-19 03:18:00,38.5,19.5,29.85,SSW,211,10.0,11.5,46,0.00,OVC,BKN,0.00,0.0,WeatherDisplay:10.37,2013-01-19 08:18:00,
2013-01-19 03:23:00,38.8,19.8,29.84,South,184,8.2,16.1,46,0.00,OVC,BKN,0.00,0.0,WeatherDisplay:10.37,2013-01-19 08:23:00,
2013-01-19 03:28:00,39.0,20.0,29.84,SSW,205,6.6,13.8,46,0.00,OVC,BKN,0.00,0.0,WeatherDisplay:10.37,2013-01-19 08:28:00,
2013-01-19 03:33:00,39.0,20.0,29.83,SSW,206,7.2,12.7,46,0.00,OVC,BKN,0.00,0.0,WeatherDisplay:10.37,2013-01-19 08:33:00,
2013-01-19 03:38:00,38.8,20.8,29.83,SSW,211,7.4,10.4,48,0.00,OVC,BKN,0.00,0.0,WeatherDisplay:10.37,2013-01-19 08:38:00,
2013-01-19 03:43:00,39.0,20.5,29.83,SSW,198,7.1,10.4,47,0.00,OVC,BKN,0.00,0.0,WeatherDisplay:10.37,2013-01-19 08:43:00,
2013-01-19 03:48:00,39.0,20.0,29.83,SSW,197,9.7,12.7,46,0.00,OVC,BKN,0.00,0.0,WeatherDisplay:10.37,2013-01-19 08:48:00,
2013-01-19 03:53:00,39.0,20.5,29.83,South,182,10.3,15.0,47,0.00,OVC,BKN,0.00,0.0,WeatherDisplay:10.37,2013-01-19 08:53:00,
2013-01-19 03:58:00,39.0,20.5,29.83,SSW,211,7.5,11.5,47,0.00,OVC,BKN,0.00,0.0,WeatherDisplay:10.37,2013-01-19 08:58:00,
2013-01-19 04:03:00,39.2,20.6,29.83,SSW,195,8.9,11.5,47,0.00,OVC,BKN,0.00,0.0,WeatherDisplay:10.37,2013-01-19 09:03:00,
2013-01-19 04:08:00,39.2,20.6,29.82,SW,224,9.7,13.7,47,0.00,OVC,BKN,0.00,0.0,WeatherDisplay:10.37,2013-01-19 09:08:00,
2013-01-19 04:13:00,39.0,21.0,29.82,SSW,193,9.6,11.5,48,0.00,OVC,BKN,0.00,0.0,WeatherDisplay:10.37,2013-01-19 09:13:00,
2013-01-19 04:18:00,39.0,21.0,29.81,SSW,206,7.8,12.7,48,0.00,OVC,BKN,0.00,0.0,WeatherDisplay:10.37,2013-01-19 09:18:00,
2013-01-19 04:23:00,39.0,21.0,29.81,SSE,165,9.6,17.3,48,0.00,OVC,BKN,0.00,0.0,WeatherDisplay:10.37,2013-01-19 09:23:00,
2013-01-19 04:28:00,39.4,21.3,29.81,SW,219,7.4,13.8,48,0.00,OVC,BKN,0.00,0.0,WeatherDisplay:10.37,2013-01-19 09:28:00,
2013-01-19 04:33:00,39.4,20.8,29.81,SSW,206,9.1,15.0,47,0.00,OVC,BKN,0.00,0.0,WeatherDisplay:10.37,2013-01-19 09:33:00,
2013-01-19 04:38:00,39.2,21.1,29.81,SSW,198,7.7,11.5,48,0.00,OVC,BKN,0.00,0.0,WeatherDisplay:10.37,2013-01-19 09:38:00,
2013-01-19 04:43:00,39.6,21.5,29.81,SSW,197,9.7,15.0,48,0.00,OVC,BKN,0.00,0.0,WeatherDisplay:10.37,2013-01-19 09:43:00,
2013-01-19 04:48:00,39.7,21.6,29.81,SSE,163,7.3,10.4,48,0.00,OVC,BKN,0.00,0.0,WeatherDisplay:10.37,2013-01-19 09:48:00,
2013-01-19 04:53:00,39.7,21.6,29.81,SW,223,8.3,10.4,48,0.00,OVC,BKN,0.00,0.0,WeatherDisplay:10.37,2013-01-19 09:53:00,
2013-01-19 04:58:00,40.1,22.0,29.81,SW,214,7.9,11.5,48,0.00,OVC,BKN,0.00,0.0,WeatherDisplay:10.37,2013-01-19 09:58:00,
2013-01-19 05:03:00,40.1,22.0,29.80,South,181,8.6,11.5,48,0.00,OVC,BKN,0.00,0.0,WeatherDisplay:10.37,2013-01-19 10:03:00,
2013-01-19 05:08:00,40.3,22.6,29.80,SSW,202,7.4,11.5,49,0.00,OVC,BKN,0.00,0.0,WeatherDisplay:10.37,2013-01-19 10:08:00,
2013-01-19 05:13:00,40.3,22.1,29.80,SSW,204,9.3,15.0,48,0.00,OVC,BKN,0.00,0.0,WeatherDisplay:10.37,2013-01-19 10:13:00,
2013-01-19 05:18:00,40.5,22.3,29.80,SSW,211,10.4,15.0,48,0.00,OVC,BKN,0.00,0.0,WeatherDisplay:10.37,2013-01-19 10:18:00,
2013-01-19 05:23:00,40.6,22.5,29.80,WSW,247,11.5,18.4,48,0.00,OVC,BKN,0.00,0.0,WeatherDisplay:10.37,2013-01-19 10:23:00,
2013-01-19 05:28:00,40.6,22.5,29.80,SW,218,12.3,15.0,48,0.00,OVC,BKN,0.00,0.0,WeatherDisplay:10.37,2013-01-19 10:28:00,
2013-01-19 05:33:00,40.8,23.1,29.80,SSW,196,7.1,12.7,49,0.00,OVC,BKN,0.00,0.0,WeatherDisplay:10.37,2013-01-19 10:33:00,
2013-01-19 05:38:00,40.8,22.6,29.80,SSW,203,10.1,15.0,48,0.00,OVC,BKN,0.00,0.0,WeatherDisplay:10.37,2013-01-19 10:38:00,
2013-01-19 05:43:00,40.6,22.5,29.80,SW,214,10.4,16.6,48,0.00,OVC,BKN,0.00,0.0,WeatherDisplay:10.37,2013-01-19 10:43:00,
2013-01-19 05:48:00,40.6,22.9,29.80,SW,224,11.5,16.1,49,0.00,OVC,BKN,0.00,0.0,WeatherDisplay:10.37,2013-01-19 10:48:00,
2013-01-19 05:53:00,40.8,23.1,29.81,SSW,203,9.1,13.8,49,0.00,OVC,BKN,0.00,0.0,WeatherDisplay:10.37,2013-01-19 10:53:00,
2013-01-19 05:58:00,40.8,22.6,29.80,SSW,195,8.8,13.8,48,0.00,OVC,BKN,0.00,0.0,WeatherDisplay:10.37,2013-01-19 10:58:00,
2013-01-19 06:03:00,40.8,23.1,29.80,WSW,237,9.7,15.0,49,0.00,OVC,BKN,0.00,0.0,WeatherDisplay:10.37,2013-01-19 11:03:00,
2013-01-19 06:08:00,40.6,22.5,29.80,SW,236,9.4,13.8,48,0.00,OVC,BKN,0.00,0.0,WeatherDisplay:10.37,2013-01-19 11:08:00,
2013-01-19 06:14:00,40.8,23.1,29.80,SW,234,8.2,13.8,49,0.00,OVC,BKN,0.00,0.0,WeatherDisplay:10.37,2013-01-19 11:14:00,
2013-01-19 07:47:00,40.8,24.1,29.79,South,171,7.8,11.5,51,0.00,OVC,BKN,0.00,0.0,WeatherDisplay:10.37,2013-01-19 12:47:00,
2013-01-19 07:48:00,40.8,24.1,29.79,SW,236,8.9,12.7,51,0.00,OVC,BKN,0.00,0.0,WeatherDisplay:10.37,2013-01-19 12:48:00,
2013-01-19 07:53:00,40.6,23.9,29.80,WSW,244,8.0,10.4,51,0.00,OVC,BKN,0.00,0.0,WeatherDisplay:10.37,2013-01-19 12:53:00,
2013-01-19 07:58:00,40.8,23.6,29.80,SSW,200,7.7,10.4,50,0.00,OVC,BKN,0.00,0.0,WeatherDisplay:10.37,2013-01-19 12:58:00,
2013-01-19 08:03:00,40.8,24.1,29.79,SW,217,8.5,12.7,51,0.00,OVC,BKN,0.00,0.0,WeatherDisplay:10.37,2013-01-19 13:03:00,
2013-01-19 08:08:00,40.5,23.7,29.79,SW,223,8.8,15.0,51,0.00,OVC,BKN,0.00,0.0,WeatherDisplay:10.37,2013-01-19 13:08:00,
2013-01-19 08:13:00,40.6,23.9,29.79,SW,215,9.7,13.8,51,0.00,OVC,BKN,0.00,0.0,WeatherDisplay:10.37,2013-01-19 13:13:00,
2013-01-19 08:18:00,40.6,24.4,29.80,SSW,210,7.9,10.4,52,0.00,OVC,BKN,0.00,0.0,WeatherDisplay:10.37,2013-01-19 13:18:00,
2013-01-19 08:23:00,40.3,24.0,29.80,WSW,241,9.1,13.8,52,0.00,OVC,BKN,0.00,0.0,WeatherDisplay:10.37,2013-01-19 13:23:00,
2013-01-19 08:28:00,40.8,24.5,29.80,SW,225,8.6,11.5,52,0.00,OVC,BKN,0.00,0.0,WeatherDisplay:10.37,2013-01-19 13:28:00,
2013-01-19 08:33:00,40.6,23.9,29.79,SSW,208,10.2,13.8,51,0.00,OVC,BKN,0.00,0.0,WeatherDisplay:10.37,2013-01-19 13:33:00,
2013-01-19 08:38:00,41.0,24.2,29.80,SW,230,10.8,18.4,51,0.00,OVC,BKN,0.00,0.0,WeatherDisplay:10.37,2013-01-19 13:38:00,
2013-01-19 08:43:00,41.0,24.7,29.80,SSW,210,9.9,13.8,52,0.00,OVC,BKN,0.00,70.8,WeatherDisplay:10.37,2013-01-19 13:43:00,
2013-01-19 08:48:00,41.2,24.9,29.80,SW,234,5.8,8.1,52,0.00,OVC,BKN,0.00,42.8,WeatherDisplay:10.37,2013-01-19 13:48:00,
2013-01-19 08:53:00,40.8,24.5,29.80,SSW,192,9.7,15.0,52,0.00,OVC,BKN,0.00,51.1,WeatherDisplay:10.37,2013-01-19 13:53:00,
2013-01-19 08:58:00,40.8,24.5,29.80,SSW,197,12.3,17.3,52,0.00,OVC,BKN,0.00,54.9,WeatherDisplay:10.37,2013-01-19 13:58:00,
2013-01-19 09:03:00,41.2,24.9,29.81,SW,220,10.9,16.1,52,0.00,OVC,BKN,0.00,76.3,WeatherDisplay:10.37,2013-01-19 14:03:00,
2013-01-19 09:08:00,41.2,24.9,29.80,SSW,202,8.6,14.0,52,0.00,OVC,BKN,0.00,65.9,WeatherDisplay:10.37,2013-01-19 14:08:00,
2013-01-19 09:13:00,41.7,25.4,29.81,SSW,210,7.6,10.7,52,0.00,OVC,BKN,0.00,131.2,WeatherDisplay:10.37,2013-01-19 14:13:00,
2013-01-19 09:18:00,41.5,25.2,29.81,South,175,8.7,15.8,52,0.00,OVC,BKN,0.00,90.0,WeatherDisplay:10.37,2013-01-19 14:18:00,
2013-01-19 09:23:00,41.7,25.4,29.81,SW,234,9.0,13.8,52,0.00,OVC,BKN,0.00,112.5,WeatherDisplay:10.37,2013-01-19 14:23:00,
2013-01-19 09:28:00,42.1,25.7,29.81,South,180,8.6,13.8,52,0.00,OVC,BKN,0.00,112.5,WeatherDisplay:10.37,2013-01-19 14:28:00,
2013-01-19 09:33:00,41.9,25.1,29.81,SSW,198,11.6,15.0,51,0.00,OVC,BKN,0.00,132.9,WeatherDisplay:10.37,2013-01-19 14:33:00,
2013-01-19 09:38:00,41.9,25.5,29.81,WSW,237,11.6,17.3,52,0.00,OVC,BKN,0.00,99.4,WeatherDisplay:10.37,2013-01-19 14:38:00,
2013-01-19 09:43:00,41.7,24.9,29.81,SSW,213,16.3,23.0,51,0.00,OVC,BKN,0.00,92.2,WeatherDisplay:10.37,2013-01-19 14:43:00,
2013-01-19 09:48:00,41.9,25.5,29.81,South,190,9.9,17.3,52,0.00,OVC,BKN,0.00,85.6,WeatherDisplay:10.37,2013-01-19 14:48:00,
2013-01-19 09:53:00,42.1,25.7,29.81,SSW,213,13.3,19.6,52,0.00,OVC,BKN,0.00,108.7,WeatherDisplay:10.37,2013-01-19 14:53:00,
2013-01-19 09:58:00,42.3,25.9,29.81,WSW,242,11.9,15.9,52,0.00,OVC,BKN,0.00,109.8,WeatherDisplay:10.37,2013-01-19 14:58:00,
2013-01-19 10:03:00,42.1,26.2,29.81,SW,218,9.2,13.8,53,0.00,OVC,BKN,0.00,111.4,WeatherDisplay:10.37,2013-01-19 15:03:00,
2013-01-19 10:08:00,42.4,26.0,29.81,WSW,257,13.9,20.7,52,0.00,OVC,BKN,0.00,106.0,WeatherDisplay:10.37,2013-01-19 15:08:00,
2013-01-19 10:13:00,42.4,26.5,29.82,SW,227,9.5,13.8,53,0.00,OVC,BKN,0.00,100.5,WeatherDisplay:10.37,2013-01-19 15:13:00,
2013-01-19 10:18:00,42.4,26.0,29.81,SSW,211,13.7,17.3,52,0.00,OVC,BKN,0.00,123.5,WeatherDisplay:10.37,2013-01-19 15:18:00,
2013-01-19 10:23:00,42.4,26.0,29.81,WSW,240,10.8,17.3,52,0.00,OVC,BKN,0.00,143.3,WeatherDisplay:10.37,2013-01-19 15:23:00,
2013-01-19 10:28:00,42.4,26.0,29.81,SW,232,12.7,20.7,52,0.00,OVC,BKN,0.00,123.5,WeatherDisplay:10.37,2013-01-19 15:28:00,
2013-01-19 10:33:00,42.4,26.0,29.81,SSW,198,13.0,23.0,52,0.00,OVC,BKN,0.00,109.8,WeatherDisplay:10.37,2013-01-19 15:33:00,
2013-01-19 10:38:00,42.6,26.7,29.81,SSW,213,12.3,20.7,53,0.00,OVC,BKN,0.00,103.2,WeatherDisplay:10.37,2013-01-19 15:38:00,
2013-01-19 10:43:00,42.6,26.2,29.81,South,190,13.4,19.6,52,0.00,OVC,BKN,0.00,115.3,WeatherDisplay:10.37,2013-01-19 15:43:00,
2013-01-19 10:48:00,43.0,27.0,29.81,SW,226,10.8,13.8,53,0.00,OVC,BKN,0.00,151.5,WeatherDisplay:10.37,2013-01-19 15:48:00,
2013-01-19 10:53:00,43.3,26.9,29.81,SSW,208,12.5,18.4,52,0.00,OVC,BKN,0.00,308.0,WeatherDisplay:10.37,2013-01-19 15:53:00,
2013-01-19 10:58:00,43.5,27.0,29.81,South,185,14.7,25.3,52,0.00,OVC,BKN,0.00,345.9,WeatherDisplay:10.37,2013-01-19 15:58:00,
2013-01-19 11:03:00,43.3,26.9,29.81,NNW,331,12.3,17.3,52,0.00,OVC,BKN,0.00,227.8,WeatherDisplay:10.37,2013-01-19 16:03:00,
2013-01-19 11:08:00,43.9,27.4,29.80,SW,214,11.9,15.0,52,0.00,OVC,BKN,0.00,383.2,WeatherDisplay:10.37,2013-01-19 16:08:00,
2013-01-19 11:13:00,44.2,28.2,29.80,SSW,208,11.5,15.0,53,0.00,OVC,BKN,0.00,368.4,WeatherDisplay:10.37,2013-01-19 16:13:00,
2013-01-19 11:18:00,44.4,27.4,29.80,SW,224,11.3,18.4,51,0.00,OVC,BKN,0.00,392.5,WeatherDisplay:10.37,2013-01-19 16:18:00,
2013-01-19 11:23:00,44.1,27.5,29.80,SSW,209,18.0,23.0,52,0.00,OVC,BKN,0.00,368.4,WeatherDisplay:10.37,2013-01-19 16:23:00,
2013-01-19 11:28:00,44.2,27.7,29.79,SW,214,13.0,17.3,52,0.00,OVC,BKN,0.00,215.8,WeatherDisplay:10.37,2013-01-19 16:28:00,
2013-01-19 11:33:00,44.4,27.9,29.79,SW,219,11.6,15.0,52,0.00,OVC,BKN,0.00,344.2,WeatherDisplay:10.37,2013-01-19 16:33:00,
2013-01-19 11:38:00,44.2,28.2,29.78,WSW,239,13.2,18.4,53,0.00,OVC,BKN,0.00,188.9,WeatherDisplay:10.37,2013-01-19 16:38:00,
2013-01-19 11:43:00,44.1,27.5,29.78,SSW,202,13.9,19.6,52,0.00,OVC,BKN,0.00,221.2,WeatherDisplay:10.37,2013-01-19 16:43:00,
2013-01-19 11:48:00,45.0,28.8,29.78,SSW,205,11.8,19.6,53,0.00,OVC,BKN,0.00,379.4,WeatherDisplay:10.37,2013-01-19 16:48:00,
2013-01-19 11:53:00,45.0,28.8,29.78,SW,214,13.2,19.6,53,0.00,OVC,BKN,0.00,352.5,WeatherDisplay:10.37,2013-01-19 16:53:00,
2013-01-19 11:58:00,45.1,29.0,29.78,SW,223,10.2,17.3,53,0.00,OVC,BKN,0.00,228.9,WeatherDisplay:10.37,2013-01-19 16:58:00,
2013-01-19 12:03:00,44.8,28.7,29.78,SSW,213,11.3,17.3,53,0.00,OVC,BKN,0.00,246.5,WeatherDisplay:10.37,2013-01-19 17:03:00,
2013-01-19 12:08:00,45.0,28.8,29.78,SSW,207,12.1,19.7,53,0.00,OVC,BKN,0.00,236.1,WeatherDisplay:10.37,2013-01-19 17:08:00,
2013-01-19 12:13:00,45.1,29.5,29.78,SSW,202,10.3,15.0,54,0.00,OVC,BKN,0.00,253.1,WeatherDisplay:10.37,2013-01-19 17:13:00,
2013-01-19 12:18:00,44.8,28.7,29.78,SSW,211,15.0,18.4,53,0.00,OVC,BKN,0.00,238.3,WeatherDisplay:10.37,2013-01-19 17:18:00,
2013-01-19 12:23:00,45.0,29.3,29.77,WSW,244,11.7,15.0,54,0.00,OVC,BKN,0.00,197.1,WeatherDisplay:10.37,2013-01-19 17:23:00,
2013-01-19 12:28:00,45.1,29.0,29.77,SW,225,12.1,16.1,53,0.00,OVC,BKN,0.00,245.4,WeatherDisplay:10.37,2013-01-19 17:28:00,
2013-01-19 12:33:00,45.3,29.6,29.76,WSW,255,11.8,19.6,54,0.00,OVC,BKN,0.00,292.1,WeatherDisplay:10.37,2013-01-19 17:33:00,
2013-01-19 12:38:00,45.0,28.8,29.77,SSW,203,14.8,18.4,53,0.00,OVC,BKN,0.00,135.6,WeatherDisplay:10.37,2013-01-19 17:38:00,
2013-01-19 12:44:00,44.8,29.6,29.77,South,184,9.7,18.7,55,0.00,OVC,BKN,0.00,139.4,WeatherDisplay:10.37,2013-01-19 17:44:00,
2013-01-19 12:49:00,44.4,28.3,29.76,West,269,11.3,16.7,53,0.00,OVC,BKN,0.00,108.7,WeatherDisplay:10.37,2013-01-19 17:49:00,
2013-01-19 12:54:00,44.4,28.8,29.76,SW,228,10.3,13.8,54,0.00,OVC,BKN,0.00,113.6,WeatherDisplay:10.37,2013-01-19 17:54:00,
2013-01-19 12:59:00,44.4,28.8,29.77,SW,221,11.8,15.3,54,0.00,OVC,BKN,0.00,120.8,WeatherDisplay:10.37,2013-01-19 17:59:00,
2013-01-19 13:04:00,44.2,29.1,29.76,SSW,200,13.6,16.1,55,0.00,OVC,BKN,0.00,123.5,WeatherDisplay:10.37,2013-01-19 18:04:00,
2013-01-19 13:09:00,44.2,29.1,29.76,SSW,210,12.1,21.9,55,0.00,OVC,BKN,0.00,120.8,WeatherDisplay:10.37,2013-01-19 18:09:00,
2013-01-19 13:15:00,44.4,28.8,29.76,SSW,212,15.2,23.0,54,0.00,OVC,BKN,0.00,109.8,WeatherDisplay:10.37,2013-01-19 18:15:00,
2013-01-19 13:20:00,44.4,29.2,29.76,SW,226,11.6,20.7,55,0.00,OVC,BKN,0.00,107.1,WeatherDisplay:10.37,2013-01-19 18:20:00,
2013-01-19 13:26:00,44.4,29.2,29.76,WSW,240,9.6,17.3,55,0.00,OVC,BKN,0.00,96.6,WeatherDisplay:10.37,2013-01-19 18:26:00,
2013-01-19 13:31:00,44.6,29.0,29.76,SW,214,11.3,12.7,54,0.00,OVC,BKN,0.00,92.2,WeatherDisplay:10.37,2013-01-19 18:31:00,
2013-01-19 13:36:00,44.4,29.7,29.76,SW,221,8.2,16.1,56,0.00,OVC,BKN,0.00,125.7,WeatherDisplay:10.37,2013-01-19 18:36:00,
2013-01-19 13:41:00,44.8,30.0,29.76,SW,216,12.7,12.7,56,0.00,OVC,BKN,0.00,0.0,WeatherDisplay:10.37,2013-01-19 18:41:00,
2013-01-19 13:47:00,45.1,29.9,29.76,WSW,239,9.0,15.0,55,0.00,OVC,BKN,0.00,113.6,WeatherDisplay:10.37,2013-01-19 18:47:00,
2013-01-19 13:52:00,44.8,29.1,29.76,SSW,193,11.2,15.0,54,0.00,OVC,BKN,0.00,109.8,WeatherDisplay:10.37,2013-01-19 18:52:00,
2013-01-19 13:57:00,45.3,30.1,29.76,SSW,213,8.9,11.5,55,0.00,OVC,BKN,0.00,134.0,WeatherDisplay:10.37,2013-01-19 18:57:00,
2013-01-19 14:02:00,45.7,30.4,29.76,SSW,207,6.6,11.5,55,0.00,OVC,BKN,0.00,213.0,WeatherDisplay:10.37,2013-01-19 19:02:00,
2013-01-19 14:07:00,45.9,30.1,29.75,SSW,206,6.4,12.7,54,0.00,OVC,BKN,0.00,148.8,WeatherDisplay:10.37,2013-01-19 19:07:00,
2013-01-19 14:13:00,46.0,30.8,29.75,South,169,6.4,9.2,55,0.00,OVC,BKN,0.00,131.2,WeatherDisplay:10.37,2013-01-19 19:13:00,
2013-01-19 14:19:00,46.2,30.9,29.74,SSW,202,6.8,12.7,55,0.00,OVC,BKN,0.00,172.9,WeatherDisplay:10.37,2013-01-19 19:19:00,
2013-01-19 14:24:00,46.9,30.2,29.74,South,178,6.9,11.6,52,0.00,OVC,BKN,0.00,174.0,WeatherDisplay:10.37,2013-01-19 19:24:00,
2013-01-19 14:29:00,47.1,30.4,29.74,SW,224,6.6,11.5,52,0.00,OVC,BKN,0.00,137.8,WeatherDisplay:10.37,2013-01-19 19:29:00,
2013-01-19 14:34:00,46.6,30.3,29.74,SSW,210,8.4,13.8,53,0.00,OVC,BKN,0.00,210.3,WeatherDisplay:10.37,2013-01-19 19:34:00,
2013-01-19 14:40:00,46.6,29.9,29.74,SW,226,11.6,12.7,52,0.00,OVC,BKN,0.00,140.5,WeatherDisplay:10.37,2013-01-19 19:40:00,
2013-01-19 14:45:00,46.0,29.8,29.74,SSW,199,9.9,12.7,53,0.00,OVC,BKN,0.00,111.4,WeatherDisplay:10.37,2013-01-19 19:45:00,
2013-01-19 14:50:00,46.2,30.5,29.74,SSW,211,7.6,10.4,54,0.00,OVC,BKN,0.00,157.0,WeatherDisplay:10.37,2013-01-19 19:50:00,
2013-01-19 14:56:00,46.6,30.8,29.74,SSW,202,8.1,15.1,54,0.00,OVC,BKN,0.00,164.7,WeatherDisplay:10.37,2013-01-19 19:56:00,
2013-01-19 15:01:00,46.4,30.2,29.74,SW,219,8.3,12.7,53,0.00,OVC,BKN,0.00,96.6,WeatherDisplay:10.37,2013-01-19 20:01:00,
2013-01-19 15:06:00,46.6,30.8,29.74,SW,219,6.8,11.5,54,0.00,OVC,BKN,0.00,113.6,WeatherDisplay:10.37,2013-01-19 20:06:00,
2013-01-19 15:11:00,47.1,31.3,29.73,SW,223,3.2,6.9,54,0.00,OVC,BKN,0.00,96.6,WeatherDisplay:10.37,2013-01-19 20:11:00,
2013-01-19 15:16:00,46.4,29.7,29.73,SSW,208,9.3,12.7,52,0.00,OVC,BKN,0.00,106.0,WeatherDisplay:10.37,2013-01-19 20:16:00,
2013-01-19 15:22:00,46.6,29.9,29.73,SSW,210,9.0,15.0,52,0.00,OVC,BKN,0.00,88.4,WeatherDisplay:10.37,2013-01-19 20:22:00,
2013-01-19 15:27:00,46.2,29.5,29.73,SSW,211,9.6,15.0,52,0.00,OVC,BKN,0.00,60.4,WeatherDisplay:10.37,2013-01-19 20:27:00,
2013-01-19 15:32:00,46.8,30.0,29.72,SSW,206,6.3,9.2,52,0.00,OVC,BKN,0.00,48.3,WeatherDisplay:10.37,2013-01-19 20:32:00,
2013-01-19 15:37:00,46.6,30.3,29.72,SSW,205,6.4,9.2,53,0.00,OVC,BKN,0.00,41.7,WeatherDisplay:10.37,2013-01-19 20:37:00,
2013-01-19 15:42:00,46.6,29.9,29.72,SW,218,5.1,8.4,52,0.00,OVC,BKN,0.00,37.3,WeatherDisplay:10.37,2013-01-19 20:42:00,
2013-01-19 15:47:00,46.6,29.9,29.72,SSW,209,6.2,10.5,52,0.00,OVC,BKN,0.00,33.5,WeatherDisplay:10.37,2013-01-19 20:47:00,
2013-01-19 15:52:00,46.6,29.9,29.72,SSW,206,3.2,5.8,52,0.00,OVC,BKN,0.00,34.6,WeatherDisplay:10.37,2013-01-19 20:52:00,
2013-01-19 15:58:00,46.4,29.7,29.72,SSW,202,8.4,11.5,52,0.00,OVC,BKN,0.00,34.6,WeatherDisplay:10.37,2013-01-19 20:58:00,
2013-01-19 16:03:00,46.8,30.0,29.72,South,187,4.1,8.1,52,0.00,OVC,BKN,0.00,26.9,WeatherDisplay:10.37,2013-01-19 21:03:00,
2013-01-19 16:09:00,46.6,30.3,29.71,SSW,203,3.8,5.8,53,0.00,OVC,BKN,0.00,24.2,WeatherDisplay:10.37,2013-01-19 21:09:00,
2013-01-19 16:14:00,46.4,29.7,29.70,SSW,201,5.0,9.2,52,0.00,OVC,BKN,0.00,20.3,WeatherDisplay:10.37,2013-01-19 21:14:00,
2013-01-19 16:19:00,46.6,29.9,29.70,SSW,200,3.4,5.8,52,0.00,OVC,BKN,0.00,13.2,WeatherDisplay:10.37,2013-01-19 21:19:00,
2013-01-19 16:25:00,46.8,30.0,29.70,SSW,206,2.0,4.6,52,0.00,OVC,BKN,0.00,17.6,WeatherDisplay:10.37,2013-01-19 21:25:00,
2013-01-19 16:30:00,46.6,29.9,29.69,SSW,201,1.8,3.5,52,0.00,OVC,BKN,0.00,20.3,WeatherDisplay:10.37,2013-01-19 21:30:00,
2013-01-19 16:35:00,46.6,29.9,29.69,South,179,1.2,3.5,52,0.00,OVC,BKN,0.00,13.2,WeatherDisplay:10.37,2013-01-19 21:35:00,
2013-01-19 16:40:00,46.6,29.9,29.69,South,179,0.2,3.5,52,0.00,OVC,BKN,0.00,9.3,WeatherDisplay:10.37,2013-01-19 21:40:00,
2013-01-19 16:45:00,46.2,30.0,29.68,SSE,157,0.4,1.4,53,0.00,OVC,BKN,0.00,3.8,WeatherDisplay:10.37,2013-01-19 21:45:00,
2013-01-19 16:51:00,46.2,30.5,29.68,SSE,162,0.4,2.3,54,0.00,OVC,BKN,0.00,3.8,WeatherDisplay:10.37,2013-01-19 21:51:00,
2013-01-19 16:56:00,46.0,30.3,29.68,SE,146,1.5,3.5,54,0.00,OVC,BKN,0.00,2.7,WeatherDisplay:10.37,2013-01-19 21:56:00,
2013-01-19 17:01:00,46.0,30.3,29.67,SSE,150,0.5,2.3,54,0.00,OVC,BKN,0.00,2.7,WeatherDisplay:10.37,2013-01-19 22:01:00,
2013-01-19 17:07:00,45.9,30.1,29.67,SSE,154,2.2,4.6,54,0.00,OVC,BKN,0.00,1.1,WeatherDisplay:10.37,2013-01-19 22:07:00,
2013-01-19 17:12:00,45.7,29.5,29.67,SE,146,2.2,4.6,53,0.00,OVC,BKN,0.00,1.1,WeatherDisplay:10.37,2013-01-19 22:12:00,
2013-01-19 17:17:00,45.7,29.5,29.67,SE,134,2.7,4.6,53,0.00,OVC,BKN,0.00,1.1,WeatherDisplay:10.37,2013-01-19 22:17:00,
2013-01-19 17:22:00,45.7,29.5,29.66,ESE,114,4.5,5.8,53,0.00,OVC,BKN,0.00,1.1,WeatherDisplay:10.37,2013-01-19 22:22:00,
2013-01-19 17:27:00,45.9,29.7,29.65,SE,132,3.2,5.8,53,0.00,OVC,BKN,0.00,1.1,WeatherDisplay:10.37,2013-01-19 22:27:00,
2013-01-19 17:32:00,45.7,29.5,29.65,SE,140,3.7,5.8,53,0.00,OVC,BKN,0.00,1.1,WeatherDisplay:10.37,2013-01-19 22:32:00,
2013-01-19 17:37:00,45.9,29.7,29.65,SE,135,2.1,4.6,53,0.00,OVC,BKN,0.00,1.1,WeatherDisplay:10.37,2013-01-19 22:37:00,
2013-01-19 17:42:00,45.9,29.7,29.65,SE,134,0.6,4.6,53,0.00,OVC,BKN,0.00,0.0,WeatherDisplay:10.37,2013-01-19 22:42:00,
2013-01-19 17:47:00,45.5,29.8,29.65,South,171,3.9,6.9,54,0.00,OVC,BKN,0.00,0.0,WeatherDisplay:10.37,2013-01-19 22:47:00,
2013-01-19 17:52:00,45.5,29.8,29.64,SE,133,3.9,5.8,54,0.00,OVC,BKN,0.00,0.0,WeatherDisplay:10.37,2013-01-19 22:52:00,
2013-01-19 17:58:00,45.3,29.6,29.63,SE,133,3.1,5.8,54,0.00,OVC,BKN,0.00,0.0,WeatherDisplay:10.37,2013-01-19 22:58:00,
2013-01-19 18:03:00,45.3,29.6,29.63,SE,130,3.0,4.6,54,0.00,OVC,BKN,0.00,0.0,WeatherDisplay:10.37,2013-01-19 23:03:00,
2013-01-19 18:08:00,45.3,29.6,29.63,SE,127,3.3,5.8,54,0.00,OVC,BKN,0.00,0.0,WeatherDisplay:10.37,2013-01-19 23:08:00,
2013-01-19 18:14:00,45.1,29.9,29.63,SE,133,3.9,6.9,55,0.00,OVC,BKN,0.00,0.0,WeatherDisplay:10.37,2013-01-19 23:14:00,
2013-01-19 18:19:00,45.1,29.5,29.62,ESE,106,4.2,6.9,54,0.00,OVC,BKN,0.00,0.0,WeatherDisplay:10.37,2013-01-19 23:19:00,
2013-01-19 18:24:00,45.1,29.9,29.62,SE,138,4.3,5.8,55,0.00,OVC,BKN,0.00,0.0,WeatherDisplay:10.37,2013-01-19 23:24:00,
2013-01-19 18:30:00,45.1,29.9,29.62,SE,132,3.0,5.8,55,0.00,OVC,BKN,0.00,0.0,WeatherDisplay:10.37,2013-01-19 23:30:00,
2013-01-19 18:35:00,45.1,30.4,29.62,SSE,154,0.9,2.3,56,0.00,OVC,BKN,0.00,0.0,WeatherDisplay:10.37,2013-01-19 23:35:00,
2013-01-19 18:40:00,45.1,30.4,29.61,SSE,150,1.4,4.6,56,0.00,OVC,BKN,0.00,0.0,WeatherDisplay:10.37,2013-01-19 23:40:00,
2013-01-19 18:45:00,45.1,30.4,29.61,SSE,168,0.1,2.3,56,0.00,OVC,BKN,0.00,0.0,WeatherDisplay:10.37,2013-01-19 23:45:00,
2013-01-19 18:50:00,45.3,30.5,29.61,South,190,0.8,2.3,56,0.00,OVC,BKN,0.00,0.0,WeatherDisplay:10.37,2013-01-19 23:50:00,
2013-01-19 18:56:00,45.3,30.1,29.61,South,177,2.5,3.5,55,0.00,OVC,BKN,0.00,0.0,WeatherDisplay:10.37,2013-01-19 23:56:00,
2013-01-19 19:02:00,46.0,29.4,29.61,South,184,5.6,10.4,52,0.00,OVC,BKN,0.00,0.0,WeatherDisplay:10.37,2013-01-20 00:02:00,
2013-01-19 19:07:00,46.8,29.1,29.60,SSE,166,4.6,6.9,50,0.00,OVC,BKN,0.00,0.0,WeatherDisplay:10.37,2013-01-20 00:07:00,
2013-01-19 19:12:00,47.5,29.3,29.60,South,190,5.0,8.1,49,0.00,OVC,BKN,0.00,0.0,WeatherDisplay:10.37,2013-01-20 00:12:00,
2013-01-19 19:17:00,47.8,28.6,29.60,South,174,8.1,11.5,47,0.00,OVC,BKN,0.00,0.0,WeatherDisplay:10.37,2013-01-20 00:17:00,
2013-01-19 19:22:00,48.0,28.2,29.59,SSE,167,6.7,10.4,46,0.00,OVC,BKN,0.00,0.0,WeatherDisplay:10.37,2013-01-20 00:22:00,
2013-01-19 19:27:00,47.8,28.0,29.59,South,189,7.5,9.2,46,0.00,OVC,BKN,0.00,0.0,WeatherDisplay:10.37,2013-01-20 00:27:00,
2013-01-19 19:33:00,48.2,28.4,29.59,South,170,5.3,8.1,46,0.00,OVC,BKN,0.00,0.0,WeatherDisplay:10.37,2013-01-20 00:33:00,
2013-01-19 19:38:00,48.0,28.2,29.59,SSW,196,4.8,11.5,46,0.00,OVC,BKN,0.00,0.0,WeatherDisplay:10.37,2013-01-20 00:38:00,
2013-01-19 19:43:00,47.8,27.0,29.59,SSW,210,8.3,11.5,44,0.00,OVC,BKN,0.00,0.0,WeatherDisplay:10.37,2013-01-20 00:43:00,
2013-01-19 19:49:00,48.2,27.3,29.59,SSW,197,7.2,11.5,44,0.00,OVC,BKN,0.00,0.0,WeatherDisplay:10.37,2013-01-20 00:49:00,
2013-01-19 19:55:00,47.8,27.0,29.59,SSW,197,7.7,13.8,44,0.00,OVC,BKN,0.00,0.0,WeatherDisplay:10.37,2013-01-20 00:55:00,
2013-01-19 20:00:00,48.0,26.6,29.58,South,169,8.0,11.5,43,0.00,OVC,BKN,0.00,0.0,WeatherDisplay:10.37,2013-01-20 01:00:00,
2013-01-19 20:05:00,48.0,26.0,29.58,SSW,203,9.0,10.4,42,0.00,OVC,BKN,0.00,0.0,WeatherDisplay:10.37,2013-01-20 01:05:00,
2013-01-19 20:10:00,48.0,26.0,29.58,SSW,206,10.1,11.5,42,0.00,OVC,BKN,0.00,0.0,WeatherDisplay:10.37,2013-01-20 01:10:00,
2013-01-19 20:15:00,48.4,26.3,29.58,SSW,201,7.4,10.4,42,0.00,OVC,BKN,0.00,0.0,WeatherDisplay:10.37,2013-01-20 01:15:00,
2013-01-19 20:21:00,48.2,26.2,29.58,SSW,200,9.8,13.8,42,0.00,OVC,BKN,0.00,0.0,WeatherDisplay:10.37,2013-01-20 01:21:00,
2013-01-19 20:26:00,48.0,26.0,29.57,South,189,12.1,13.8,42,0.00,OVC,BKN,0.00,0.0,WeatherDisplay:10.37,2013-01-20 01:26:00,
2013-01-19 20:32:00,48.2,25.0,29.57,SSW,197,11.5,16.1,40,0.00,OVC,BKN,0.00,0.0,WeatherDisplay:10.37,2013-01-20 01:32:00,
2013-01-19 20:37:00,48.2,25.6,29.57,SSW,197,9.7,13.8,41,0.00,OVC,BKN,0.00,0.0,WeatherDisplay:10.37,2013-01-20 01:37:00,
2013-01-19 20:42:00,48.4,25.1,29.57,South,171,10.4,18.4,40,0.00,OVC,BKN,0.00,0.0,WeatherDisplay:10.37,2013-01-20 01:42:00,
2013-01-19 20:48:00,48.2,25.0,29.57,SSW,205,11.0,15.0,40,0.00,OVC,BKN,0.00,0.0,WeatherDisplay:10.37,2013-01-20 01:48:00,
2013-01-19 20:53:00,48.4,25.1,29.56,South,174,9.3,16.1,40,0.00,OVC,BKN,0.00,0.0,WeatherDisplay:10.37,2013-01-20 01:53:00,
2013-01-19 20:58:00,48.6,25.3,29.55,SW,216,9.4,16.1,40,0.00,OVC,BKN,0.00,0.0,WeatherDisplay:10.37,2013-01-20 01:58:00,
2013-01-19 21:03:00,48.4,25.1,29.55,SSW,196,10.0,16.1,40,0.00,OVC,BKN,0.00,0.0,WeatherDisplay:10.37,2013-01-20 02:03:00,
2013-01-19 21:08:00,48.4,25.1,29.55,South,189,12.6,18.4,40,0.00,OVC,BKN,0.00,0.0,WeatherDisplay:10.37,2013-01-20 02:08:00,
2013-01-19 21:14:00,48.4,25.1,29.55,South,182,9.8,15.0,40,0.00,OVC,BKN,0.00,0.0,WeatherDisplay:10.37,2013-01-20 02:14:00,
2013-01-19 21:19:00,48.4,25.1,29.55,SSE,167,8.4,13.8,40,0.00,OVC,BKN,0.00,0.0,WeatherDisplay:10.37,2013-01-20 02:19:00,
2013-01-19 21:24:00,48.4,25.1,29.54,SW,223,10.1,15.6,40,0.00,OVC,BKN,0.00,0.0,WeatherDisplay:10.37,2013-01-20 02:24:00,
2013-01-19 21:29:00,48.4,25.1,29.54,SW,215,12.5,16.1,40,0.00,OVC,BKN,0.00,0.0,WeatherDisplay:10.37,2013-01-20 02:29:00,
2013-01-19 21:34:00,48.4,25.1,29.54,SW,216,9.9,17.6,40,0.00,OVC,BKN,0.00,0.0,WeatherDisplay:10.37,2013-01-20 02:34:00,
2013-01-19 21:39:00,48.4,25.1,29.54,SW,225,10.9,18.4,40,0.00,OVC,BKN,0.00,0.0,WeatherDisplay:10.37,2013-01-20 02:39:00,
2013-01-19 21:44:00,48.4,25.1,29.54,SSW,205,12.2,15.0,40,0.00,OVC,BKN,0.00,0.0,WeatherDisplay:10.37,2013-01-20 02:44:00,
2013-01-19 21:49:00,48.6,25.3,29.54,SSW,193,9.3,12.7,40,0.00,OVC,BKN,0.00,0.0,WeatherDisplay:10.37,2013-01-20 02:49:00,
2013-01-19 21:54:00,48.6,25.3,29.54,SSW,213,8.5,16.1,40,0.00,OVC,BKN,0.00,0.0,WeatherDisplay:10.37,2013-01-20 02:54:00,
2013-01-19 21:59:00,48.4,25.1,29.53,SSW,210,11.3,18.4,40,0.00,OVC,BKN,0.00,0.0,WeatherDisplay:10.37,2013-01-20 02:59:00,
2013-01-19 22:04:00,48.4,25.1,29.53,SSW,193,9.7,17.3,40,0.00,OVC,BKN,0.00,0.0,WeatherDisplay:10.37,2013-01-20 03:04:00,
2013-01-19 22:09:00,48.4,25.1,29.53,SSW,197,10.3,16.4,40,0.00,OVC,BKN,0.00,0.0,WeatherDisplay:10.37,2013-01-20 03:09:00,
2013-01-19 22:14:00,48.4,25.1,29.52,SW,236,10.9,16.1,40,0.00,OVC,BKN,0.00,0.0,WeatherDisplay:10.37,2013-01-20 03:14:00,
2013-01-19 22:19:00,48.2,25.0,29.52,South,186,10.6,11.5,40,0.00,OVC,BKN,0.00,0.0,WeatherDisplay:10.37,2013-01-20 03:19:00,
2013-01-19 22:25:00,48.2,25.0,29.52,South,190,8.8,16.1,40,0.00,OVC,BKN,0.00,0.0,WeatherDisplay:10.37,2013-01-20 03:25:00,
2013-01-19 22:30:00,48.0,25.4,29.51,SSW,210,10.3,14.5,41,0.00,OVC,BKN,0.00,0.0,WeatherDisplay:10.37,2013-01-20 03:30:00,
2013-01-19 22:35:00,48.0,25.4,29.51,SSW,206,10.4,18.4,41,0.00,OVC,BKN,0.00,0.0,WeatherDisplay:10.37,2013-01-20 03:35:00,
2013-01-19 22:40:00,48.4,26.3,29.51,WSW,249,7.6,11.5,42,0.00,OVC,BKN,0.00,0.0,WeatherDisplay:10.37,2013-01-20 03:40:00,
2013-01-19 22:45:00,47.8,25.8,29.51,South,177,9.8,15.0,42,0.00,OVC,BKN,0.00,0.0,WeatherDisplay:10.37,2013-01-20 03:45:00,
2013-01-19 22:50:00,48.0,25.4,29.51,South,187,11.3,13.8,41,0.00,OVC,BKN,0.00,0.0,WeatherDisplay:10.37,2013-01-20 03:50:00,
2013-01-19 22:55:00,47.8,25.8,29.51,SW,226,11.9,17.3,42,0.00,OVC,BKN,0.00,0.0,WeatherDisplay:10.37,2013-01-20 03:55:00,
2013-01-19 23:00:00,48.0,25.4,29.50,SSW,192,10.8,13.8,41,0.00,OVC,BKN,0.00,0.0,WeatherDisplay:10.37,2013-01-20 04:00:00,
2013-01-19 23:05:00,47.8,25.8,29.50,South,185,10.3,20.6,42,0.00,OVC,BKN,0.00,0.0,WeatherDisplay:10.37,2013-01-20 04:05:00,
2013-01-19 23:10:00,47.8,25.8,29.50,South,184,13.6,19.6,42,0.00,OVC,BKN,0.00,0.0,WeatherDisplay:10.37,2013-01-20 04:10:00,
2013-01-19 23:15:00,47.8,25.8,29.49,SSE,166,12.0,15.0,42,0.00,OVC,BKN,0.00,0.0,WeatherDisplay:10.37,2013-01-20 04:15:00,
2013-01-19 23:20:00,47.8,25.8,29.49,SSW,193,9.8,16.4,42,0.00,OVC,BKN,0.00,0.0,WeatherDisplay:10.37,2013-01-20 04:20:00,
2013-01-19 23:25:00,47.8,25.8,29.48,South,184,11.4,18.4,42,0.00,OVC,BKN,0.00,0.0,WeatherDisplay:10.37,2013-01-20 04:25:00,
2013-01-19 23:31:00,47.8,25.8,29.48,South,184,12.1,17.3,42,0.00,OVC,BKN,0.00,0.0,WeatherDisplay:10.37,2013-01-20 04:31:00,
2013-01-19 23:36:00,47.8,25.8,29.48,SSW,203,11.8,20.7,42,0.00,OVC,BKN,0.00,0.0,WeatherDisplay:10.37,2013-01-20 04:36:00,
2013-01-19 23:41:00,47.8,25.8,29.48,SSE,166,12.3,18.7,42,0.00,OVC,BKN,0.00,0.0,WeatherDisplay:10.37,2013-01-20 04:41:00,
2013-01-19 23:46:00,47.8,25.8,29.47,South,187,12.5,17.3,42,0.00,OVC,BKN,0.00,0.0,WeatherDisplay:10.37,2013-01-20 04:46:00,
2013-01-19 23:52:00,47.8,25.8,29.47,SSW,193,11.9,16.1,42,0.00,OVC,BKN,0.00,0.0,WeatherDisplay:10.37,2013-01-20 04:52:00,
2013-01-19 23:57:00,47.7,26.2,29.46,South,180,11.9,16.1,43,0.00,OVC,BKN,0.00,0.0,WeatherDisplay:10.37,2013-01-20 04:57:00,